This is the latest recevied weather packets stored in our database for station/object K5NAN. If no packets are shown the sender has not sent any weather packets the latest 10 day(s).
| Time | Temp. | Humidity | Pressure | Rain* | Wind** | Luminosity | Snow |
|---|---|---|---|---|---|---|---|
| 1777783057 | 16.11° C | 64% | 1018.6 hPa | 0 mm | - | 0 W/m² | - |
| 1777782753 | 16.11° C | 62% | 1018.7 hPa | 0 mm | - | 0 W/m² | - |
| 1777782449 | 16.11° C | 63% | 1018.7 hPa | 0 mm | - | 0 W/m² | - |
| 1777782146 | 16.11° C | 63% | 1018.5 hPa | 0 mm | - | 0 W/m² | - |
| 1777781842 | 16.67° C | 61% | 1018.6 hPa | 0 mm | - | 0 W/m² | - |
| 1777781540 | 16.67° C | 61% | 1018.5 hPa | 0 mm | - | 0 W/m² | - |
| 1777781237 | 16.67° C | 62% | 1018.7 hPa | 0 mm | - | 0 W/m² | - |
| 1777780935 | 16.11° C | 63% | 1018.6 hPa | 0 mm | - | 0 W/m² | - |
| 1777780632 | 16.11° C | 63% | 1018.6 hPa | 0 mm | - | 0 W/m² | - |
| 1777780329 | 16.67° C | 62% | 1018.5 hPa | 0 mm | - | 0 W/m² | - |
| 1777780026 | 16.67° C | 61% | 1018.5 hPa | 0 mm | - | 0 W/m² | - |
| 1777779723 | 17.22° C | 58% | 1018.6 hPa | 0 mm | - | 0 W/m² | - |
| 1777779420 | 17.78° C | 58% | 1018.4 hPa | 0 mm | - | 0 W/m² | - |
| 1777779118 | 17.78° C | 56% | 1018.5 hPa | 0 mm | - | 0 W/m² | - |
| 1777778816 | 17.78° C | 58% | 1018.7 hPa | 0 mm | - | 0 W/m² | - |
| 1777778514 | 17.78° C | 59% | 1018.5 hPa | 0 mm | - | 0 W/m² | - |
| 1777778211 | 17.78° C | 59% | 1018.6 hPa | 0 mm | - | 0 W/m² | - |
| 1777777909 | 17.78° C | 60% | 1018.5 hPa | 0 mm | - | 0 W/m² | - |
| 1777777605 | 17.78° C | 58% | 1018.3 hPa | 0 mm | - | 0 W/m² | - |
| 1777777302 | 17.78° C | 57% | 1018.4 hPa | 0 mm | - | 0 W/m² | - |
| 1777776998 | 17.78° C | 60% | 1018.4 hPa | 0 mm | - | 0 W/m² | - |
| 1777776697 | 17.78° C | 59% | 1018.3 hPa | 0 mm | - | 0 W/m² | - |
| 1777776392 | 17.78° C | 58% | 1018.1 hPa | 0 mm | - | 0 W/m² | - |
| 1777776090 | 18.33° C | 56% | 1018.2 hPa | 0 mm | - | 0 W/m² | - |
| 1777775787 | 18.89° C | 54% | 1018 hPa | 0 mm | - | 0 W/m² | - |
* Rain latest hour (hover to see other rain measurements)
** Current wind speed in m/s (hover to see current wind gust speed)